Flag for Sao Tome and Principe Weather past 2 weeks in São Tomé, Sao Tome and Principe

Now
73 °F

Passing clouds.


Feels Like: 72 °F
Forecast: N/A
Wind: 5 mph from West

Location: S. Tome

Current Time: Sep 2, 2015 at 10:13:09 PM

Latest Report: Sep 2, 2015 at 9:00 PM


Visibility: N/A

Pressure: 30.04 "Hg

Humidity: 89%

Dew point: 70 °F

Location of São ToméLocation

Historic Weather in São Tomé — Graph

°F

São Tomé temperature yesterday

Maximum temperature yesterday: 81 °F (at 11:00 AM)
Minimum temperature yesterday: 75 °F (at 6:00 AM)
Average temperature yesterday: 77 °F

Past Weeks' High & Low Weather Summary

 TemperatureHumidityPressure
High86 °F (Aug 25, 1:00 PM)94% (Aug 20, 3:00 AM)30.07 "Hg (Aug 20, 3:00 AM)
Low73 °F (Aug 19, 4:00 AM)62% (Aug 25, 1:00 PM)29.86 "Hg (Aug 19, 4:00 PM)
Average78 °F81%29.96 "Hg
* Reported Aug 18 8:00 PM — Sep 2 8:00 PM, São Tomé, Weather by CustomWeather, © 2015

Note: Actual official high and low records may vary slightly from our data, if they occured in-between our weather recording intervals... More about our weather records

Advertising

São Tomé weather history for previous 24 hours

 ConditionsComfort  
Time TempWeatherWind HumidityBarometerVisibility
8:00 PM
Wed, Sep 2
75 °FPassing clouds.2 mph83%30.01 "HgN/A
7:00 PM77 °FPassing clouds.5 mph79%29.98 "HgN/A
5:00 PM77 °FPartly sunny.2 mph79%29.95 "HgN/A
4:00 PM79 °FPartly sunny.9 mph74%29.95 "HgN/A
3:00 PM81 °FPartly sunny.7 mph70%29.95 "HgN/A
2:00 PM79 °FPartly sunny.5 mph74%29.98 "HgN/A
1:00 PM79 °FPartly sunny.7 mph79%29.98 "HgN/A
12:00 PM79 °FPartly sunny.12 mph79%30.01 "HgN/A
11:00 AM79 °FPartly sunny.12 mph84%30.04 "HgN/A
10:00 AM82 °FPartly sunny.7 mph70%30.01 "HgN/A
9:00 AM81 °FPartly sunny.5 mph70%30.01 "HgN/A
8:00 AM79 °FPartly sunny.2 mph74%30.01 "HgN/A
7:00 AM75 °FBroken clouds.7 mph89%29.98 "HgN/A
6:00 AM75 °FPartly sunny.5 mph78%29.98 "HgN/A
4:00 AM73 °FPartly cloudy.7 mph89%29.98 "HgN/A
10:00 PM
Tue, Sep 1
75 °FPassing clouds.5 mph83%30.01 "HgN/A
Weather by CustomWeather, © 2015

See weather overviewHow to use our weather pages